Regional Weather Roundup
Issued by NWS

Home | Current Version | Previous Version | Text Only | Print | Product List | Glossary Off
Versions: 1 2 3 4 5 6 7 8 9 10 11 12 13 14 15 16 17 18 19 20 21 22 23 24 25 26 27 28 29 30 31 32 33 34 35 36 37 38 39 40 41 42 43 44 45 46 47 48 49 50

000
ASUS43 KMPX 240210
RWRMN
WEATHER ROUNDUP FOR MINNESOTA
NATIONAL WEATHER SERVICE TWIN CITIES/CHANHASSEN MN
900 PM CDT SAT MAY 23 2015


NOTE: "FAIR" INDICATES FEW OR NO CLOUDS BELOW 12,000 FEET WITH NO
SIGNIFICANT WEATHER AND/OR OBSTRUCTIONS TO VISIBILITY. N/A MEANS
CURRENT SKY AND/OR WEATHER CONDITIONS ARE NOT AVAILABLE.

MNZ060>063-068>070-240300-
   Twin Cities Metro

CITY           SKY/WX    TMP DP  RH WIND       PRES   REMARKS
TWIN CITIES    MOCLDY    64  46  52 NE8       30.13S
ST PAUL        MOCLDY    63  47  55 NE6       30.14S
CRYSTAL        CLOUDY    63  48  58 E5        30.12F
BLAINE         CLOUDY    61  54  77 NE3       30.14S
LAKEVILLE      MOCLDY    63  46  55 NE7       30.12S
EDEN PRAIRIE   CLOUDY    64  46  52 NE9       30.12S
SOUTH ST PAUL  MOCLDY    64  45  49 NE6       30.13R
LAKE ELMO      FAIR      61  48  63 NE7       30.15S
$$
MNZ001>005-007-008-013>017-022>024-027-028-240300-
   Northwest Minnesota

CITY           SKY/WX    TMP DP  RH WIND       PRES   REMARKS
BEMIDJI        CLEAR     64  44  48 S6        30.12S
HALLOCK        PTCLDY    72  43  35 SW12      30.06R
ROSEAU         CLEAR     70  37  30 CALM      30.08R
WARROAD        CLEAR     66  50  55 CALM      30.08S
THIEF RVR FALL PTCLDY    68  43  40 SW8       30.11R
CROOKSTON      PTCLDY    64  43  45 SW9       30.11S
FOSSTON        CLEAR     63  43  48 SW8       30.13R
DETROIT LAKES  CLEAR     63  45  51 S3        30.14S
MOORHEAD       CLEAR     66  45  45 SE3       30.12S
PARK RAPIDS    CLEAR     63  44  50 S5        30.13S
MAHNOMEN       FAIR      63  43  48 S7        30.12S
$$
MNZ006-009>011-018-025>026-240300-
   North Central Minnesota

CITY           SKY/WX    TMP DP  RH WIND       PRES   REMARKS
BAUDETTE       CLEAR     68  43  40 S3        30.08R
FLAG ISLAND    CLEAR     72  36  26 SW7       30.05S
INTL FALLS     CLEAR     68  39  34 W5        30.08R
WASKISH        CLEAR     64  46  52 CALM      30.10S
BIG FORK       PTCLDY    63  43  48 SW3       30.12R
LONGVILLE      PTCLDY    63  43  48 S3        30.14S
GRAND RAPIDS   PTCLDY    64  43  45 S5        30.14S
CRANE LAKE     CLEAR     66  37  34 CALM      30.10R
ORR            CLEAR     70  30  23 CALM      30.08S
COOK           PTCLDY    66  37  34 SW3       30.11S
WALKER         FAIR      61  42  49 CALM      30.13S
$$
MNZ012-019>021-037-240300-
   Northeast Minnesota

CITY           SKY/WX    TMP DP  RH WIND       PRES   REMARKS
DULUTH         PTCLDY    65  42  43 SW8       30.15S
ELY            PTCLDY    68  32  26 SW5       30.10R
HIBBING        PTCLDY    65  42  43 SW8       30.13R
EVELETH        PTCLDY    63  41  45 SW9       30.14S
DULUTH HARBOR  PTCLDY    68  46  45 SW12      30.14S
TWO HARBORS    PTCLDY    64  48  55 SW6       30.12R
GRAND MARAIS     N/A     52  37  56 W7        30.10R
G MARAIS ARPRT PTCLDY    61  30  31 SW5       30.14R
$$
MNZ029>031-032-039>041-046>048-054>057-064-240300-
   West Central Minnesota

CITY           SKY/WX    TMP DP  RH WIND       PRES   REMARKS
FERGUS FALLS   PTCLDY    64  46  52 SE3       30.13R
WHEATON        MOCLDY    63  48  59 E6        30.13R
MORRIS         CLOUDY    64  46  52 E7        30.11S
ALEXANDRIA     CLOUDY    63  45  51 E7        30.15S
ELBOW LAKE     FAIR      63  47  54 SE6       30.12R
WADENA         PTCLDY    63  45  51 SE3       30.13S
GLENWOOD       CLOUDY    63  46  55 E7        30.14
APPLETON       CLOUDY    64  46  52 E8        30.10S
BENSON         CLOUDY    63  45  51 E3        30.11S
ORTONVILLE     CLOUDY    64  48  55 E7        30.10S
MADISON        CLOUDY    64  46  52 E10       30.10R
WILLMAR        FAIR      64  46  52 E13       30.13R
$$
MNZ033>034-036-042>043-049>051-058-059-240300-
   Central Minnesota

CITY           SKY/WX    TMP DP  RH WIND       PRES   REMARKS
ST CLOUD       CLOUDY    63  47  55 CALM      30.14S
SAUK CENTRE    CLOUDY    61  47  60 E6        30.14S
PAYNESVILLE    CLOUDY    60  45  57 NE7       30.13S
AITKIN         PTCLDY    61  43  51 CALM      30.14F
PINE RIVER     PTCLDY    63  45  51 CALM      30.17S
BRAINERD       MOCLDY    61  46  57 CALM      30.15F
STAPLES        MOCLDY    63  43  48 CALM      30.14S
LONG PRAIRIE   CLOUDY    61  46  59 CALM      30.15R
LITTLE FALLS   CLOUDY    63  43  48 CALM      30.14S
LITCHFIELD     CLOUDY    63  48  59 E7        30.13R
BUFFALO        CLOUDY    61  49  65 NE7       30.14R
MAPLE LAKE     CLOUDY    61  52  71 NE3       30.14S
$$
MNZ037-044-045-052-053-240300-
   East Central Minnesota

CITY           SKY/WX    TMP DP  RH WIND       PRES   REMARKS
PRINCETON      CLOUDY    64  48  55 CALM      30.14F
MORA           CLOUDY    61  45  55 CALM      30.17S
CAMBRIDGE      CLOUDY    66  48  52 CALM      30.13F
RUSH CITY      CLOUDY    60  49  66 CALM      30.15S
MOOSE LAKE     MOCLDY    61  41  48 CALM      30.13F
HINCKLEY       FAIR      59  52  77 CALM      30.15F
CLOQUET        MOCLDY    64  39  39 CALM      30.15S
MCGREGOR       PTCLDY    63  43  48 CALM      30.15F
$$
MNZ071>073-080-081-089-090-097-098-240300-
   Southwest Minnesota

CITY           SKY/WX    TMP DP  RH WIND       PRES   REMARKS
MONTEVIDEO     CLOUDY    64  46  52 SE12      30.11S
GRANITE FALLS  CLOUDY    64  48  57 NE12      30.11S
CANBY          CLOUDY    65  48  55 E9        30.10S
MARSHALL       CLOUDY    64  46  52 E12       30.09S
REDWOOD FALLS  CLOUDY    65  49  56 E9        30.10R
OLIVIA         CLOUDY    59  46  63 E9        30.11R
PIPESTONE      CLOUDY    64  52  63 S3        30.08F
WINDOM         CLOUDY    63  48  59 CALM      30.09F
WORTHINGTON    CLOUDY    63  45  51 E7        30.09S
JACKSON        CLOUDY    63  50  63 SE6       30.10S
TRACY          CLOUDY    65  49  55 S5        30.09F
SLAYTON        CLOUDY    63  47  56 CALM      30.09F
$$
MNZ065>067-074>077-082>085-091>093-240300-
   South Central Minnesota

CITY           SKY/WX    TMP DP  RH WIND       PRES   REMARKS
MANKATO        CLOUDY    64  50  59 CALM      30.12R
NEW ULM        CLOUDY    66  46  48 S9        30.11R
ST JAMES       CLOUDY    68  50  52 SE6       30.11S
FAIRMONT       CLOUDY    64  46  52 SE7       30.10F
GLENCOE        CLOUDY    64  50  61 E6        30.13R
FARIBAULT      CLOUDY    70  50  49 CALM      30.13R
OWATONNA       CLOUDY    70  46  43 SE3       30.11F
WASECA         CLOUDY    64  50  59 CALM      30.13R
ALBERT LEA     CLOUDY    66  52  59 E3        30.11S
$$
MNZ078>079-086>088-094>096-240300-
   Southeast Minnesota

CITY           SKY/WX    TMP DP  RH WIND       PRES   REMARKS
ROCHESTER      CLOUDY    67  47  48 S6        30.14S
RED WING       MOCLDY    64  43  45 E3        30.11S
STANTON        MOCLDY    67  44  42 SE5       30.11R
DODGE CENTER   CLOUDY    70  46  43 S7        30.13S
WINONA         MOCLDY    66  52  59 CALM      30.13S
AUSTIN         MOCLDY    64  48  55 S9G17     30.13R
PRESTON        MOCLDY    66  45  46 CALM      30.15R
$$
ABBREVIATIONS USED IN REMARKS
   TC - TEMPERATURES IN CELSIUS
  WCI - WIND CHILL INDEX
   HX - HEAT INDEX
  VSB - VISIBILITY
$$



USA.gov is the U.S. government's official web portal to all federal, state and local government web resources and services.